Change the Weather History Date:

Friday, October 26, 2012

  Actual Average Record
Temperature  
Mean Temperature 28 °F -  
Max Temperature 33 °F 43 °F 62 °F (2000)
Min Temperature 24 °F 28 °F 12 °F (1997)
Degree Days  
Heating Degree Days 36    
Moisture  
Dew Point 25 °F    
Average Humidity 80    
Maximum Humidity 93    
Minimum Humidity 64    
Precipitation  
Precipitation 0.00 in - - ()
Sea Level Pressure  
Sea Level Pressure 30.12 in    
Wind  
Wind Speed 10 mph (WSW)    
Max Wind Speed 16 mph    
Max Gust Speed 24 mph    
Visibility 10 miles    
Events Snow    
Averages and records for this station are not official NWS values.
T = Trace of Precipitation, MM = Missing Value Source: NWS Daily Summary

Daily Weather History Graph

Daily Weather History Graph

Search for Another Location

Airport or City:

Trip Planner

Search our weather history database for the weather conditions in past years. The results will help you decide how hot, cold, wet, or windy it might be!

Date:

Astronomy

Oct. 26, 2012 Rise Set
Actual Time 7:46 AM CDT 6:01 PM CDT
Civil Twilight 7:15 AM CDT 6:33 PM CDT
Nautical Twilight 6:38 AM CDT 7:09 PM CDT
Astronomical Twilight 6:02 AM CDT 7:45 PM CDT
Moon 4:26 PM CDT (10/26) 4:32 AM CDT (10/26)
Length of Visible Light 11h 18m
Length of Day
10h 14m
Waxing Gibbous, 91% of the Moon is Illuminated
Oct 26
Waxing Gibbous
Oct 29
Full
Nov 6
Last Quarter
Nov 13
New
Nov 20
First Quarter

Hourly Weather History & Observations

Time (CDT) Temp. Windchill Dew Point Humidity Pressure Visibility Wind Dir Wind Speed Gust Speed Precip Events Conditions
12:16 AM 32.0 °F 24.8 °F 30.2 °F 93% 29.91 in 4.0 mi West 8.1 mph - N/A Snow Light Snow
12:37 AM 32.0 °F 25.6 °F 30.2 °F 93% 29.91 in 10.0 mi WSW 6.9 mph - N/A   Overcast
1:16 AM 33.8 °F 25.8 °F 30.2 °F 87% 29.92 in 10.0 mi WSW 10.4 mph 16.1 mph N/A Snow Light Snow
1:37 AM 33.8 °F 26.4 °F 30.2 °F 87% 29.93 in 10.0 mi WSW 9.2 mph 16.1 mph N/A Snow Light Snow
1:56 AM 33.8 °F 24.8 °F 30.2 °F 87% 29.94 in 7.0 mi West 12.7 mph 18.4 mph N/A Snow Light Snow
2:16 AM 32.0 °F 23.0 °F 30.2 °F 93% 29.95 in 5.0 mi West 11.5 mph 16.1 mph N/A Snow Light Snow
2:37 AM 33.8 °F 23.9 °F 30.2 °F 87% 29.96 in 10.0 mi West 15.0 mph 23.0 mph N/A   Overcast
2:56 AM 33.8 °F 25.3 °F 30.2 °F 87% 29.96 in 10.0 mi West 11.5 mph 18.4 mph N/A   Overcast
3:16 AM 33.8 °F 24.8 °F 28.4 °F 81% 29.97 in 10.0 mi West 12.7 mph 19.6 mph N/A   Overcast
3:37 AM 32.0 °F 22.1 °F 28.4 °F 87% 29.98 in 10.0 mi West 13.8 mph 20.7 mph N/A   Overcast
3:57 AM 32.0 °F 22.5 °F 28.4 °F 87% 29.98 in 10.0 mi West 12.7 mph 19.6 mph N/A   Overcast
4:16 AM 32.0 °F 23.0 °F 28.4 °F 87% 29.99 in 7.0 mi West 11.5 mph 20.7 mph N/A   Overcast
4:37 AM 32.0 °F 23.6 °F 30.2 °F 93% 30.00 in 10.0 mi West 10.4 mph - N/A Snow Light Snow
4:57 AM 32.0 °F 23.6 °F 28.4 °F 87% 30.01 in 7.0 mi West 10.4 mph 20.7 mph N/A   Overcast
5:16 AM 32.0 °F 22.5 °F 28.4 °F 87% 30.01 in 10.0 mi West 12.7 mph 19.6 mph N/A   Overcast
5:37 AM 32.0 °F 22.1 °F 26.6 °F 80% 30.02 in 10.0 mi West 13.8 mph 23.0 mph N/A   Overcast
5:56 AM 30.2 °F 20.2 °F 26.6 °F 86% 30.03 in 10.0 mi West 12.7 mph 23.0 mph N/A   Overcast
6:17 AM 30.2 °F 20.2 °F 26.6 °F 86% 30.04 in 10.0 mi West 12.7 mph 20.7 mph N/A   Overcast
6:36 AM 30.2 °F 21.3 °F 26.6 °F 86% 30.05 in 10.0 mi West 10.4 mph - N/A   Overcast
6:56 AM 30.2 °F 20.8 °F 26.6 °F 86% 30.05 in 10.0 mi West 11.5 mph 17.3 mph N/A   Overcast
7:17 AM 30.2 °F 19.3 °F 26.6 °F 86% 30.06 in 10.0 mi West 15.0 mph 24.2 mph N/A   Overcast
7:56 AM 30.2 °F 21.3 °F 26.6 °F 86% 30.08 in 10.0 mi West 10.4 mph 16.1 mph N/A   Overcast
8:56 AM 30.2 °F 20.8 °F 24.8 °F 80% 30.11 in 10.0 mi WSW 11.5 mph - N/A   Overcast
9:17 AM 30.2 °F 20.2 °F 26.6 °F 86% 30.12 in 10.0 mi West 12.7 mph - N/A   Overcast
9:36 AM 30.2 °F 20.8 °F 24.8 °F 80% 30.12 in 10.0 mi West 11.5 mph 17.3 mph N/A   Overcast
9:56 AM 32.0 °F 22.5 °F 24.8 °F 75% 30.13 in 10.0 mi West 12.7 mph 18.4 mph N/A   Overcast
10:17 AM 32.0 °F 21.6 °F 24.8 °F 75% 30.14 in 10.0 mi WSW 15.0 mph 20.7 mph N/A   Overcast
10:36 AM 32.0 °F 21.2 °F 24.8 °F 75% 30.14 in 10.0 mi West 16.1 mph 20.7 mph N/A   Overcast
10:56 AM 32.0 °F 21.6 °F 23.0 °F 69% 30.15 in 10.0 mi West 15.0 mph 20.7 mph N/A   Overcast
11:17 AM 32.0 °F 21.6 °F 24.8 °F 75% 30.15 in 10.0 mi West 15.0 mph 18.4 mph N/A   Overcast
11:36 AM 32.0 °F 24.8 °F 24.8 °F 75% 30.16 in 10.0 mi West 8.1 mph - N/A   Overcast
11:56 AM 32.0 °F 25.6 °F 24.8 °F 75% 30.16 in 10.0 mi WSW 6.9 mph 16.1 mph N/A   Overcast
12:17 PM 32.0 °F 23.0 °F 24.8 °F 75% 30.16 in 10.0 mi WSW 11.5 mph 18.4 mph N/A   Overcast
12:36 PM 32.0 °F 21.2 °F 23.0 °F 69% 30.16 in 10.0 mi WSW 16.1 mph 21.9 mph N/A   Overcast
12:57 PM 32.0 °F 23.0 °F 21.2 °F 64% 30.16 in 10.0 mi West 11.5 mph 20.7 mph N/A   Overcast
1:17 PM 32.0 °F 23.0 °F 23.0 °F 69% 30.16 in 10.0 mi West 11.5 mph 16.1 mph N/A   Overcast
1:36 PM 32.0 °F 23.0 °F 23.0 °F 69% 30.17 in 10.0 mi West 11.5 mph - N/A   Overcast
1:57 PM 32.0 °F 21.6 °F 23.0 °F 69% 30.18 in 10.0 mi West 15.0 mph 20.7 mph N/A   Overcast
2:17 PM 32.0 °F 23.6 °F 21.2 °F 64% 30.18 in 10.0 mi West 10.4 mph 17.3 mph N/A   Overcast
2:36 PM 30.2 °F 20.2 °F 23.0 °F 75% 30.18 in 10.0 mi West 12.7 mph 17.3 mph N/A   Overcast
2:57 PM 30.2 °F 21.3 °F 21.2 °F 69% 30.18 in 10.0 mi WSW 10.4 mph 18.4 mph N/A   Overcast
3:17 PM 30.2 °F 21.9 °F 21.2 °F 69% 30.18 in 10.0 mi West 9.2 mph - N/A   Overcast
3:36 PM 30.2 °F 21.9 °F 23.0 °F 75% 30.19 in 10.0 mi WSW 9.2 mph - N/A   Overcast
3:57 PM 32.0 °F 25.6 °F 21.2 °F 64% 30.18 in 10.0 mi WSW 6.9 mph - N/A   Overcast
4:17 PM 32.0 °F 24.2 °F 21.2 °F 64% 30.18 in 10.0 mi WSW 9.2 mph - N/A   Overcast
4:36 PM 30.2 °F 21.9 °F 23.0 °F 75% 30.19 in 10.0 mi WSW 9.2 mph - N/A   Overcast
4:57 PM 30.2 °F 23.4 °F 23.0 °F 75% 30.19 in 10.0 mi WSW 6.9 mph - N/A   Overcast
5:17 PM 30.2 °F 23.4 °F 23.0 °F 75% 30.19 in 10.0 mi WSW 6.9 mph - N/A Snow Light Snow
5:36 PM 30.2 °F 23.4 °F 23.0 °F 75% 30.20 in 10.0 mi West 6.9 mph - N/A Snow Light Snow
5:57 PM 30.2 °F 23.4 °F 24.8 °F 80% 30.20 in 1.2 mi WSW 6.9 mph - N/A Snow Light Snow
6:16 PM 28.4 °F 22.2 °F 24.8 °F 86% 30.21 in 10.0 mi WSW 5.8 mph - N/A   Overcast
6:36 PM 28.4 °F 22.2 °F 24.8 °F 86% 30.21 in 10.0 mi WSW 5.8 mph - N/A   Overcast
6:56 PM 28.4 °F 21.2 °F 24.8 °F 86% 30.21 in 10.0 mi WSW 6.9 mph - N/A   Overcast
7:16 PM 28.4 °F 23.3 °F 24.8 °F 86% 30.22 in 10.0 mi WSW 4.6 mph - N/A   Overcast
7:37 PM 28.4 °F 23.3 °F 24.8 °F 86% 30.22 in 10.0 mi West 4.6 mph - N/A   Overcast
7:56 PM 28.4 °F 23.3 °F 24.8 °F 86% 30.22 in 10.0 mi West 4.6 mph - N/A   Overcast
8:16 PM 28.4 °F 22.2 °F 23.0 °F 80% 30.22 in 10.0 mi West 5.8 mph - N/A   Overcast
8:37 PM 28.4 °F 22.2 °F 21.2 °F 74% 30.22 in 10.0 mi WSW 5.8 mph - N/A   Overcast
9:17 PM 28.4 °F - 23.0 °F 80% 30.22 in 10.0 mi Calm Calm - N/A   Overcast
9:37 PM 28.4 °F 24.6 °F 23.0 °F 80% 30.22 in 10.0 mi SW 3.5 mph - N/A   Overcast
9:56 PM 28.4 °F 23.3 °F 21.2 °F 74% 30.22 in 10.0 mi SW 4.6 mph - N/A   Overcast
10:17 PM 28.4 °F 24.6 °F 21.2 °F 74% 30.22 in 10.0 mi SSW 3.5 mph - N/A   Mostly Cloudy
10:37 PM 26.6 °F 22.6 °F 21.2 °F 80% 30.22 in 10.0 mi SW 3.5 mph - N/A   Clear
10:56 PM 26.6 °F - 21.2 °F 80% 30.22 in 10.0 mi Calm Calm - N/A   Clear
11:37 PM 24.8 °F - 21.2 °F 86% 30.22 in 10.0 mi Calm Calm - N/A   Clear
11:56 PM 24.8 °F - 21.2 °F 86% 30.22 in 10.0 mi Calm Calm - N/A   Clear